Location: Mahannah Oil Field
(37.4664°N, 96.6003°W)
Time: 07:58:40
(UTC+00:00)

Transit 2A Rocket - Pass Details

Date: 26 January 2021
Orbit: 594 x 909 km, 66.7° (Epoch: 25 February)

Event Time Altitude Azimuth Distance (km) Brightness Sun altitude
Rises 16:08:51 0° 156° (SSE) 3,393 9.6 23.8°
Reaches altitude 10° 16:12:59 10° 128° (SE) 2,393 9.3 24.3°
Maximum altitude 16:15:04 12° 105° (ESE) 2,203 8.4 24.5°
Drops below altitude 10° 16:17:06 10° 82° (E) 2,319 8.0 24.8°
Sets 16:20:56 0° 53° (NE) 3,168 8.2 25.3°
